TimeEST,TemperatureF,Dew PointF,Humidity,Sea Level PressureIn,VisibilityMPH,Wind Direction,Wind SpeedMPH,Gust SpeedMPH,PrecipitationIn,Events,Conditions,WindDirDegrees,DateUTC
12:03 AM,60.8,46.4,59,30.02,10.0,South,5.8,-,N/A,,Clear,170,2012-12-05 05:03:00
12:24 AM,60.8,48.2,63,30.01,10.0,South,6.9,-,N/A,,Clear,170,2012-12-05 05:24:00
12:45 AM,59.0,48.2,67,30.00,10.0,South,4.6,-,N/A,,Clear,170,2012-12-05 05:45:00
1:06 AM,60.8,48.2,63,30.00,10.0,SSW,6.9,-,N/A,,Clear,200,2012-12-05 06:06:00
1:28 AM,60.8,48.2,63,29.99,10.0,SSW,8.1,-,N/A,,Clear,200,2012-12-05 06:28:00
1:49 AM,60.8,48.2,63,30.00,10.0,SSW,5.8,-,N/A,,Clear,200,2012-12-05 06:49:00
2:10 AM,60.8,48.2,63,29.99,10.0,South,5.8,-,N/A,,Clear,190,2012-12-05 07:10:00
2:32 AM,60.8,48.2,63,29.99,10.0,South,5.8,-,N/A,,Clear,190,2012-12-05 07:32:00
2:53 AM,60.8,48.2,63,29.99,10.0,SSW,5.8,-,N/A,,Clear,200,2012-12-05 07:53:00
3:14 AM,60.8,48.2,63,29.99,10.0,SSW,5.8,-,N/A,,Clear,200,2012-12-05 08:14:00
3:36 AM,60.8,48.2,63,29.99,10.0,SW,4.6,-,N/A,,Clear,220,2012-12-05 08:36:00
3:57 AM,60.8,48.2,63,29.99,10.0,SW,6.9,-,N/A,,Clear,230,2012-12-05 08:57:00
4:18 AM,59.0,48.2,67,30.01,10.0,West,4.6,-,N/A,,Clear,260,2012-12-05 09:18:00
4:39 AM,55.4,48.2,77,30.00,10.0,West,6.9,-,N/A,,Clear,270,2012-12-05 09:39:00
5:01 AM,55.4,48.2,77,30.02,10.0,West,6.9,-,N/A,,Clear,280,2012-12-05 10:01:00
5:22 AM,59.0,48.2,67,30.03,10.0,WNW,11.5,-,N/A,,Clear,300,2012-12-05 10:22:00
5:43 AM,55.4,46.4,72,30.04,10.0,NNW,5.8,-,N/A,,Scattered Clouds,330,2012-12-05 10:43:00
6:05 AM,55.4,46.4,72,30.06,10.0,NW,8.1,-,N/A,,Scattered Clouds,310,2012-12-05 11:05:00
9:37 AM,53.6,35.6,51,30.13,10.0,NW,15.0,18.4,N/A,,Clear,310,2012-12-05 14:37:00
9:58 AM,53.6,37.4,54,30.14,10.0,NW,9.2,-,N/A,,Clear,310,2012-12-05 14:58:00
10:20 AM,53.6,35.6,51,30.14,10.0,NW,10.4,-,N/A,,Clear,310,2012-12-05 15:20:00
10:41 AM,53.6,35.6,51,30.14,10.0,WNW,10.4,-,N/A,,Clear,300,2012-12-05 15:41:00
11:02 AM,53.6,33.8,47,30.14,10.0,NW,9.2,16.1,N/A,,Clear,310,2012-12-05 16:02:00
11:23 AM,53.6,33.8,47,30.13,10.0,NW,8.1,-,N/A,,Clear,310,2012-12-05 16:23:00
11:45 AM,53.6,33.8,47,30.13,10.0,NW,10.4,-,N/A,,Clear,310,2012-12-05 16:45:00
12:06 PM,53.6,32.0,44,30.12,10.0,NW,16.1,26.5,N/A,,Clear,310,2012-12-05 17:06:00
12:27 PM,53.6,33.8,47,30.12,10.0,NW,9.2,-,N/A,,Clear,310,2012-12-05 17:27:00
12:48 PM,53.6,32.0,44,30.12,10.0,WNW,11.5,17.3,N/A,,Clear,300,2012-12-05 17:48:00
1:09 PM,55.4,32.0,41,30.11,10.0,WNW,11.5,18.4,N/A,,Clear,300,2012-12-05 18:09:00
2:13 PM,55.4,32.0,41,30.10,10.0,NW,9.2,-,N/A,,Clear,310,2012-12-05 19:13:00
2:34 PM,55.4,33.8,44,30.10,10.0,NW,8.1,-,N/A,,Clear,310,2012-12-05 19:34:00
3:38 PM,55.4,32.0,41,30.12,10.0,WNW,11.5,17.3,N/A,,Clear,290,2012-12-05 20:38:00
3:59 PM,55.4,32.0,41,30.13,10.0,WNW,11.5,18.4,N/A,,Clear,300,2012-12-05 20:59:00
4:21 PM,53.6,32.0,44,30.14,10.0,WNW,10.4,-,N/A,,Clear,300,2012-12-05 21:21:00
5:03 PM,51.8,33.8,50,30.15,10.0,NW,13.8,20.7,N/A,,Clear,320,2012-12-05 22:03:00
5:24 PM,51.8,32.0,47,30.17,10.0,NW,11.5,18.4,N/A,,Clear,320,2012-12-05 22:24:00
5:46 PM,50.0,32.0,50,30.18,10.0,NW,15.0,20.7,N/A,,Clear,310,2012-12-05 22:46:00
6:07 PM,50.0,32.0,50,30.19,10.0,NW,10.4,17.3,N/A,,Clear,320,2012-12-05 23:07:00
6:28 PM,48.2,35.6,62,30.20,10.0,NNW,16.1,20.7,N/A,,Clear,330,2012-12-05 23:28:00
6:49 PM,48.2,32.0,54,30.22,10.0,NW,16.1,24.2,N/A,,Clear,320,2012-12-05 23:49:00
7:10 PM,46.4,32.0,57,30.23,10.0,NW,12.7,21.9,N/A,,Clear,320,2012-12-06 00:10:00
7:53 PM,46.4,30.2,53,30.25,10.0,NW,13.8,21.9,N/A,,Clear,320,2012-12-06 00:53:00
8:14 PM,46.4,30.2,53,30.25,10.0,NNW,15.0,19.6,N/A,,Scattered Clouds,330,2012-12-06 01:14:00
8:57 PM,44.6,28.4,53,30.27,10.0,North,16.1,26.5,N/A,,Clear,350,2012-12-06 01:57:00
9:18 PM,42.8,28.4,57,30.28,10.0,North,12.7,21.9,N/A,,Clear,350,2012-12-06 02:18:00
9:39 PM,42.8,28.4,57,30.28,10.0,North,13.8,21.9,N/A,,Clear,350,2012-12-06 02:39:00
10:00 PM,42.8,26.6,53,30.29,10.0,North,12.7,19.6,N/A,,Clear,350,2012-12-06 03:00:00
10:22 PM,42.8,24.8,49,30.30,10.0,NNW,12.7,21.9,N/A,,Clear,340,2012-12-06 03:22:00
11:04 PM,41.0,24.8,53,30.30,10.0,NNW,13.8,19.6,N/A,,Clear,330,2012-12-06 04:04:00
11:26 PM,41.0,23.0,49,30.30,10.0,NNW,11.5,18.4,N/A,,Clear,340,2012-12-06 04:26:00
11:47 PM,41.0,23.0,49,30.29,10.0,NNW,18.4,24.2,N/A,,Clear,340,2012-12-06 04:47:00